SOL722 AGGH-NVVV

Flight info

Callsign SOL722
Flight time N/A
Altitude 37000
Route NIPE1B SAKPI B598 VLI
Aircraft A320/M-SDE3FGHIRWY/LB1

Departure

Time N/A
Airport Honiara International Airport (AGGH)

Arrival

Time 2026-04-30 19:17
Airport Bauerfield International Airport (NVVV)
Time Latitude Longitude Altitude Speed Heading
2026-04-30 17:39 -9.91422 160.54192 19501 ft 382 kts 139°
2026-04-30 17:41 -10.07820 160.68845 23045 ft 403 kts 139°
2026-04-30 17:42 -10.12051 160.72628 23831 ft 408 kts 139°
2026-04-30 17:42 -10.18485 160.78389 24961 ft 415 kts 139°
2026-04-30 17:43 -10.22838 160.82284 25675 ft 419 kts 139°
2026-04-30 17:44 -10.29462 160.88201 26707 ft 426 kts 139°
2026-04-30 17:44 -10.36180 160.94220 27667 ft 432 kts 139°
2026-04-30 17:46 -10.47583 161.04454 29223 ft 443 kts 139°
2026-04-30 17:47 -10.56870 161.12773 30640 ft 444 kts 139°
2026-04-30 17:48 -10.66091 161.21082 32186 ft 441 kts 138°
2026-04-30 17:48 -10.72754 161.27509 33304 ft 439 kts 136°
2026-04-30 17:49 -10.81506 161.36066 34666 ft 436 kts 136°
2026-04-30 17:50 -10.90288 161.44554 35838 ft 434 kts 136°
2026-04-30 17:51 -10.96137 161.50217 36526 ft 433 kts 136°
2026-04-30 17:52 -11.02665 161.56546 37008 ft 437 kts 136°
2026-04-30 17:54 -11.22671 161.75975 37010 ft 442 kts 136°
2026-04-30 17:56 -11.40491 161.93305 37019 ft 443 kts 136°
2026-04-30 17:58 -11.53811 162.06289 37021 ft 443 kts 136°
2026-04-30 18:00 -11.71605 162.23662 37021 ft 443 kts 136°
2026-04-30 18:01 -11.82723 162.34522 37021 ft 442 kts 136°
2026-04-30 18:02 -11.96058 162.47570 37021 ft 442 kts 136°
2026-04-30 18:04 -12.09379 162.60629 37021 ft 442 kts 136°
2026-04-30 18:06 -12.27099 162.78022 37020 ft 442 kts 136°
2026-04-30 18:08 -12.42621 162.93281 37020 ft 442 kts 136°
2026-04-30 18:10 -12.60343 163.10743 37019 ft 442 kts 136°
2026-04-30 18:11 -12.75811 163.26009 37019 ft 442 kts 136°
2026-04-30 18:13 -12.86863 163.36952 37019 ft 442 kts 136°
2026-04-30 18:14 -12.97916 163.47900 37018 ft 442 kts 136°
2026-04-30 18:15 -13.11152 163.61022 37018 ft 442 kts 136°
2026-04-30 18:16 -13.20002 163.69791 37018 ft 442 kts 136°
2026-04-30 18:17 -13.24418 163.74182 37018 ft 442 kts 136°
2026-04-30 18:18 -13.31017 163.80753 37018 ft 442 kts 136°
2026-04-30 18:18 -13.35425 163.85132 37018 ft 442 kts 136°
2026-04-30 18:19 -13.39840 163.89521 37018 ft 442 kts 136°
2026-04-30 18:19 -13.44252 163.93918 37018 ft 442 kts 136°
2026-04-30 18:20 -13.48676 163.98298 37018 ft 442 kts 137°
2026-04-30 18:20 -13.53174 164.02593 37018 ft 442 kts 137°
2026-04-30 18:21 -13.57708 164.06876 37018 ft 442 kts 137°
2026-04-30 18:21 -13.62221 164.11183 37018 ft 442 kts 137°
2026-04-30 18:22 -13.66677 164.15471 37019 ft 442 kts 137°
2026-04-30 18:22 -13.73413 164.21942 37019 ft 442 kts 137°
2026-04-30 18:23 -13.77909 164.26246 37019 ft 442 kts 137°
2026-04-30 18:23 -13.82406 164.30556 37019 ft 442 kts 137°
2026-04-30 18:24 -13.89141 164.37033 37019 ft 442 kts 137°
2026-04-30 18:25 -13.93628 164.41354 37019 ft 442 kts 137°
2026-04-30 18:25 -14.00368 164.47832 37019 ft 442 kts 137°
2026-04-30 18:26 -14.07103 164.54310 37020 ft 442 kts 137°
2026-04-30 18:27 -14.13832 164.60799 37020 ft 442 kts 137°
2026-04-30 18:28 -14.20561 164.67300 37020 ft 442 kts 137°
2026-04-30 18:28 -14.27270 164.73770 37020 ft 442 kts 137°
2026-04-30 18:29 -14.36244 164.82432 37020 ft 442 kts 137°
2026-04-30 18:30 -14.45213 164.91107 37020 ft 442 kts 137°
2026-04-30 18:31 -14.51933 164.97620 37020 ft 442 kts 137°
2026-04-30 18:32 -14.58621 165.04107 37021 ft 442 kts 137°
2026-04-30 18:33 -14.65341 165.10614 37021 ft 442 kts 137°
2026-04-30 18:33 -14.72061 165.17148 37021 ft 442 kts 137°
2026-04-30 18:34 -14.78772 165.23671 37021 ft 442 kts 137°
2026-04-30 18:35 -14.83249 165.28021 37021 ft 442 kts 137°
2026-04-30 18:35 -14.87737 165.32380 37021 ft 442 kts 137°
2026-04-30 18:36 -14.94451 165.38916 37021 ft 442 kts 137°
2026-04-30 18:37 -15.01128 165.45426 37021 ft 442 kts 137°
2026-04-30 18:37 -15.05602 165.49788 37022 ft 442 kts 137°
2026-04-30 18:38 -15.09320 165.53420 37022 ft 442 kts 137°
2026-04-30 18:38 -15.13789 165.57791 37022 ft 442 kts 137°
2026-04-30 18:39 -15.18255 165.62157 37022 ft 442 kts 137°
2026-04-30 18:39 -15.22731 165.66521 37022 ft 442 kts 137°
2026-04-30 18:40 -15.27198 165.70898 37022 ft 442 kts 136°
2026-04-30 18:40 -15.31665 165.75274 37022 ft 442 kts 137°
2026-04-30 18:41 -15.36132 165.79644 37022 ft 442 kts 137°
2026-04-30 18:41 -15.40594 165.84022 37022 ft 442 kts 136°
2026-04-30 18:42 -15.45060 165.88401 37022 ft 442 kts 136°
2026-04-30 18:42 -15.51757 165.94977 37022 ft 442 kts 136°
2026-04-30 18:45 -15.76264 166.19077 37023 ft 442 kts 136°
2026-04-30 18:46 -15.80723 166.23467 37023 ft 442 kts 136°
2026-04-30 18:46 -15.85181 166.27867 37023 ft 442 kts 136°
2026-04-30 18:47 -15.89637 166.32261 37023 ft 442 kts 136°
2026-04-30 18:47 -15.94089 166.36665 37023 ft 442 kts 136°
2026-04-30 18:48 -15.98542 166.41066 37023 ft 442 kts 136°
2026-04-30 18:48 -16.03000 166.45464 37023 ft 442 kts 136°
2026-04-30 18:49 -16.07451 166.49873 37023 ft 442 kts 136°
2026-04-30 18:49 -16.11899 166.54283 37024 ft 442 kts 136°
2026-04-30 18:50 -16.16356 166.58693 37007 ft 442 kts 136°
2026-04-30 18:50 -16.18583 166.60901 36762 ft 442 kts 136°
2026-04-30 18:50 -16.20803 166.63101 36477 ft 440 kts 136°
2026-04-30 18:50 -16.23018 166.65271 36212 ft 432 kts 137°
2026-04-30 18:51 -16.25211 166.67357 35977 ft 425 kts 138°
2026-04-30 18:51 -16.27414 166.69408 35532 ft 423 kts 139°
2026-04-30 18:51 -16.29613 166.71437 35077 ft 422 kts 139°
2026-04-30 18:51 -16.31805 166.73453 34630 ft 419 kts 139°
2026-04-30 18:52 -16.33952 166.75431 34175 ft 417 kts 139°
2026-04-30 18:52 -16.36119 166.77436 33719 ft 415 kts 138°
2026-04-30 18:52 -16.38268 166.79439 33264 ft 414 kts 138°
2026-04-30 18:52 -16.40405 166.81436 32796 ft 412 kts 138°
2026-04-30 18:53 -16.42530 166.83426 32338 ft 410 kts 138°
2026-04-30 18:53 -16.44641 166.85407 31886 ft 408 kts 138°
2026-04-30 18:53 -16.46746 166.87380 31437 ft 406 kts 138°
2026-04-30 18:53 -16.48842 166.89341 30999 ft 404 kts 138°
2026-04-30 18:54 -16.50926 166.91291 30554 ft 402 kts 138°
2026-04-30 18:54 -16.53001 166.93233 30128 ft 399 kts 138°
2026-04-30 18:54 -16.55062 166.95162 29702 ft 397 kts 138°
2026-04-30 18:54 -16.57112 166.97081 29293 ft 395 kts 138°
2026-04-30 18:55 -16.59150 166.98990 28883 ft 392 kts 138°
2026-04-30 18:55 -16.63185 167.02773 28086 ft 388 kts 138°
2026-04-30 18:55 -16.65187 167.04649 27692 ft 386 kts 138°
2026-04-30 18:56 -16.69155 167.08367 26896 ft 381 kts 138°
2026-04-30 18:56 -16.71118 167.10212 26499 ft 379 kts 138°
2026-04-30 18:56 -16.73070 167.12046 26098 ft 376 kts 138°
2026-04-30 18:57 -16.76940 167.15682 25281 ft 372 kts 138°
2026-04-30 18:57 -16.78829 167.17458 24876 ft 370 kts 138°
2026-04-30 18:57 -16.80735 167.19250 24460 ft 368 kts 138°
2026-04-30 18:58 -16.84513 167.22807 23617 ft 363 kts 138°
2026-04-30 18:58 -16.86389 167.24572 23191 ft 361 kts 138°
2026-04-30 18:58 -16.88253 167.26323 22773 ft 359 kts 138°
2026-04-30 18:59 -16.91954 167.29803 21926 ft 356 kts 138°
2026-04-30 19:00 -16.97427 167.34963 20666 ft 350 kts 138°
2026-04-30 19:00 -16.99231 167.36663 20252 ft 348 kts 138°
2026-04-30 19:00 -17.02814 167.40038 19419 ft 345 kts 138°
2026-04-30 19:01 -17.06351 167.43375 18598 ft 341 kts 138°
2026-04-30 19:01 -17.08104 167.45029 18187 ft 339 kts 138°
2026-04-30 19:02 -17.11586 167.48318 17376 ft 336 kts 138°
2026-04-30 19:02 -17.15035 167.51574 16572 ft 332 kts 138°
2026-04-30 19:03 -17.18448 167.54800 15779 ft 329 kts 138°
2026-04-30 19:03 -17.21828 167.57999 14994 ft 326 kts 138°
2026-04-30 19:04 -17.25168 167.61159 14206 ft 317 kts 138°
2026-04-30 19:04 -17.28297 167.64117 13485 ft 296 kts 138°
2026-04-30 19:05 -17.31360 167.67016 12768 ft 297 kts 138°
2026-04-30 19:05 -17.34421 167.69912 12041 ft 297 kts 138°
2026-04-30 19:06 -17.37479 167.72810 11325 ft 296 kts 138°
2026-04-30 19:06 -17.39008 167.74256 10968 ft 296 kts 138°
2026-04-30 19:06 -17.42062 167.77148 10245 ft 295 kts 138°
2026-04-30 19:07 -17.45033 167.79972 9534 ft 278 kts 138°
2026-04-30 19:07 -17.46442 167.81313 9198 ft 269 kts 138°
2026-04-30 19:08 -17.49156 167.83896 8550 ft 265 kts 138°
2026-04-30 19:08 -17.51894 167.86496 7894 ft 266 kts 138°
2026-04-30 19:08 -17.53269 167.87799 7562 ft 267 kts 138°
2026-04-30 19:09 -17.56024 167.90416 6896 ft 268 kts 138°
2026-04-30 19:09 -17.57405 167.91731 6562 ft 268 kts 138°
2026-04-30 19:09 -17.58790 167.93047 6229 ft 269 kts 138°
2026-04-30 19:10 -17.61543 167.95668 5557 ft 269 kts 138°
2026-04-30 19:10 -17.64318 167.98313 4876 ft 270 kts 138°
2026-04-30 19:11 -17.65708 167.99635 4536 ft 270 kts 138°
2026-04-30 19:11 -17.68399 168.02361 3847 ft 267 kts 125°
2026-04-30 19:11 -17.69221 168.04051 3522 ft 256 kts 107°
2026-04-30 19:12 -17.69504 168.05851 3193 ft 246 kts 90°
2026-04-30 19:12 -17.69444 168.07615 2879 ft 242 kts 88°
2026-04-30 19:12 -17.69379 168.09378 2655 ft 238 kts 88°
2026-04-30 19:13 -17.69264 168.12676 2500 ft 222 kts 88°
2026-04-30 19:13 -17.69156 168.15862 2308 ft 208 kts 88°
2026-04-30 19:13 -17.69105 168.17332 2234 ft 190 kts 88°
2026-04-30 19:14 -17.69060 168.18626 2168 ft 164 kts 88°
2026-04-30 19:14 -17.69020 168.19778 2091 ft 154 kts 88°
2026-04-30 19:14 -17.68981 168.20880 2045 ft 149 kts 88°
2026-04-30 19:14 -17.68973 168.21965 1890 ft 149 kts 93°
2026-04-30 19:15 -17.69059 168.23042 1614 ft 147 kts 96°
2026-04-30 19:15 -17.69630 168.25042 1215 ft 145 kts 120°
2026-04-30 19:15 -17.70048 168.25995 1063 ft 145 kts 94°
2026-04-30 19:16 -17.69644 168.26951 696 ft 149 kts 47°
2026-04-30 19:16 -17.68958 168.27708 599 ft 143 kts 47°
2026-04-30 19:16 -17.68635 168.29612 505 ft 148 kts 126°
2026-04-30 19:17 -17.69202 168.30511 108 ft 146 kts 117°
2026-04-30 19:17 -17.69844 168.31801 74 ft 24 kts 117°
2026-04-30 19:17 -17.69930 168.31957 67 ft 17 kts 143°
2026-04-30 19:18 -17.69973 168.31942 68 ft 5 kts 226°
2026-04-30 19:18 -17.70002 168.31922 65 ft 0 kts 205°
2026-04-30 19:18 -17.70003 168.31922 66 ft 1 kts 205°
2026-04-30 19:19 -17.70007 168.31920 67 ft 1 kts 205°
2026-04-30 19:19 -17.70020 168.31921 68 ft 3 kts 158°
2026-04-30 19:19 -17.70053 168.31974 65 ft 3 kts 215°
2026-04-30 19:20 -17.70063 168.31944 62 ft 6 kts 250°
2026-04-30 19:20 -17.70072 168.31915 70 ft 0 kts 252°